[[{"header":{"parameterUnit":"m.s-1","parameterCategory":1,"la1":30.2991,"la2":30.254,"lo1":-89.0895,"lo2":-89.0444,"dy":0.0017,"dx":0.0017,"nx":28,"ny":28,"refTime":"2025-07-31T03:00:00:Z","depth":0,"parameterNumber":2,"parameterNumberName":"U-component_of_WINDS"},"data":[0,0,0,0,0,0,0,0,0,0,0,0,0,0,0,0,0,0,0,0,0,0,0,0,0,0,0,0,0,0,0,0,0,0,0,0,0,0,0,0,0,0,0,0,0,0,0,0,0,0,0,0,0,0,0,0,0,0,1.0586,1.0586,0,1.0558,1.0558,1.0557,1.0506,1.0505,1.0504,1.0504,1.0476,1.0476,1.0476,0,0,0,0,0,0,0,0,0,0,0,0,0,1.06,1.06,1.0586,1.0586,1.0586,1.0558,1.0558,1.0557,1.0507,1.0505,1.0504,1.0503,1.0475,1.0476,1.0476,0,0,0,0,0,0,0,0,0,0,0,0,0,1.0585,1.06,1.0587,1.0557,1.0554,1.0558,1.0558,1.0557,1.0507,1.0505,1.0504,1.0503,1.0475,1.0476,1.0476,1.0507,0,0,1.0477,1.0477,0,0,0,0,0,0,0,0,1.0586,1.0585,1.0562,1.0559,1.0556,1.0534,1.0552,1.054,1.0507,1.0525,1.0504,1.0502,1.0496,1.0495,1.0493,1.0505,1.0504,1.0477,1.0477,1.0477,1.0477,0,0,0,0,0,0,0,1.0587,1.0586,1.0575,1.0562,1.0558,1.0546,1.0543,1.055,1.0519,1.0523,1.0519,1.0517,1.0494,1.0493,1.0492,1.0504,1.0477,1.0477,1.0477,1.0477,1.0543,1.0545,0,0,0,0,0,0,1.0592,1.0587,1.0576,1.0574,1.0568,1.0547,1.0543,1.0543,1.0519,1.0514,1.0518,1.0514,1.0493,1.0491,1.049,1.0527,1.0477,1.0477,1.0477,1.0542,1.0544,1.0546,0,0,0,0,0,0,1.0593,1.0592,1.0577,1.058,1.0577,1.0549,1.0549,1.0543,1.0541,1.0515,1.051,1.0521,1.0492,1.049,1.0504,1.0525,1.0477,1.0477,1.054,1.0542,1.0545,1.0598,0,0,0,0,0,0,1.0593,1.0592,1.0602,1.058,1.0577,1.059,1.055,1.0543,1.0541,1.0536,1.0517,1.0512,1.049,1.0504,1.0504,1.0524,1.0478,1.0538,1.0541,1.0544,1.0594,1.0602,1.0609,0,0,0,0,0,1.0594,1.0618,1.0603,1.0602,1.0589,1.0591,1.0589,1.0563,1.0543,1.0554,1.0538,1.0513,1.0523,1.0505,1.0505,1.0526,1.0536,1.054,1.0544,1.0591,1.0601,1.0608,0,0,0,0,0,0,1.0643,1.0615,1.0598,1.0615,1.0606,1.0583,1.0595,1.0574,1.057,1.0566,1.0535,1.0531,1.0549,1.0539,1.052,1.0556,1.0526,1.053,1.0562,1.0571,1.0578,1.058,1.0478,0,0,0,0,0,1.0656,1.066,1.0635,1.0653,1.0649,1.0623,1.0623,1.0604,1.0594,1.059,1.0574,1.0565,1.0567,1.0568,1.0568,1.0593,1.0589,1.0608,1.0615,1.0621,1.0625,1.064,1.0648,1.0558,1.0557,1.0557,0,0,1.0683,1.0668,1.0672,1.0662,1.0653,1.0658,1.062,1.0627,1.0631,1.0591,1.0603,1.0592,1.058,1.06,1.0608,1.0592,1.0649,1.0626,1.0631,1.0631,1.0644,1.0653,1.0661,1.056,1.056,1.0559,0,0,1.0734,1.0723,1.0737,1.0729,1.0716,1.0699,1.0703,1.0684,1.0675,1.0687,1.0657,1.0663,1.0665,1.0658,1.0656,1.0709,1.0686,1.071,1.0747,1.0762,1.077,1.0776,1.0796,1.0804,1.0714,1.0714,1.0714,0,1.0769,1.0775,1.0748,1.0757,1.0755,1.072,1.0735,1.0729,1.0717,1.0717,1.0699,1.0703,1.0693,1.0712,1.0726,1.0724,1.0729,1.0711,1.0771,1.0777,1.0782,1.0801,1.0809,1.0717,1.0716,1.0716,1.0716,0,1.0819,1.0825,1.0838,1.0828,1.0827,1.084,1.0816,1.0819,1.0801,1.0787,1.0801,1.0788,1.0786,1.0789,1.0771,1.0807,1.0798,1.0776,1.0745,1.0794,1.0812,1.0819,1.0721,1.072,1.0719,1.0718,0,0,1.0899,1.0875,1.0881,1.0877,1.0861,1.0865,1.0878,1.0875,1.0879,1.0873,1.0884,1.0888,1.0869,1.0866,1.0848,1.0861,1.0907,1.0838,1.0837,1.0852,1.0948,1.0965,1.0973,1.0892,1.0893,1.0894,1.0949,0,1.0947,1.0966,1.0943,1.0967,1.0973,1.0941,1.0952,1.0945,1.0933,1.0937,1.0924,1.0928,1.0902,1.09,1.0912,1.0899,1.0926,1.0894,1.0903,1.0904,1.0907,1.0982,1.0999,1.1051,1.0956,1.0957,1.0958,0,1.1005,1.1002,1.1027,1.1013,1.1015,1.1025,1.1023,1.1026,1.1019,1.1009,1.1008,1.0987,1.1,1.097,1.0989,1.0968,1.0971,1.0965,1.0967,1.0966,1.0933,1.0985,1.1067,1.1075,1.0968,1.0967,1.0966,0,1.1062,1.1065,1.1081,1.1078,1.1061,1.107,1.1063,1.1054,1.1055,1.1054,1.1055,1.1055,1.1056,1.1057,1.1038,1.1018,1.106,1.1028,1.1054,1.1054,1.1063,1.1063,1.1148,1.1065,1.1064,1.1064,1.1064,0,1.1118,1.1135,1.1106,1.1116,1.1135,1.111,1.113,1.112,1.1113,1.1122,1.1095,1.1104,1.1077,1.1084,1.1069,1.1088,1.1088,1.1082,1.1078,1.1085,1.1086,1.1086,1.1082,1.1066,1.1066,1.1065,1.1065,0,1.1184,1.1165,1.1181,1.1165,1.1161,1.1176,1.1163,1.1172,1.116,1.1171,1.1173,1.1153,1.116,1.1141,1.1145,1.1135,1.1163,1.1153,1.1166,1.1163,1.119,1.1188,1.1278,1.1289,1.1199,1.1199,1.12,0,1.1221,1.1234,1.122,1.1224,1.1219,1.1225,1.1227,1.1204,1.1207,1.1201,1.1212,1.1217,1.1219,1.1233,1.122,1.1223,1.1213,1.1245,1.1214,1.1221,1.1215,1.1215,1.1217,1.1251,1.1252,1.1253,1.1254,0,1.129,1.1281,1.1284,1.1285,1.1288,1.1287,1.1285,1.129,1.1266,1.1271,1.1278,1.128,1.1286,1.1292,1.1293,1.1288,1.1268,1.1264,1.127,1.1277,1.1285,1.1282,1.1184,1.1262,1.1261,1.126,1.126,1.126,1.1343,1.1354,1.1346,1.1351,1.1348,1.1347,1.1356,1.1345,1.135,1.1353,1.1339,1.135,1.1345,1.1345,1.1343,1.1352,1.1337,1.1346,1.1349,1.1351,1.1356,1.1284,1.1352,1.1352,1.1351,1.1351,1.1351,0,1.1411,1.1406,1.1411,1.1409,1.1414,1.1395,1.1392,1.1398,1.1408,1.1405,1.1408,1.1418,1.1425,1.1414,1.1419,1.1428,1.142,1.1431,1.143,1.1429,1.1368,1.1362,1.1438,1.1438,1.1438,1.1438,1.1438,1.1438,1.1447,1.1465,1.1455,1.1472,1.1466,1.1476,1.1477,1.1477,1.1475,1.1487,1.1492,1.1485,1.1479,1.1484,1.1491,1.1487,1.1491,1.1505,1.1499,1.1442,1.1433,1.1425,1.142,1.1506,1.1506,1.156,1.156,1.1561]},{"header":{"parameterUnit":"m.s-1","parameterCategory":1,"la1":30.2991,"la2":30.254,"lo1":-89.0895,"lo2":-89.0444,"dy":0.0017,"dx":0.0017,"nx":28,"ny":28,"refTime":"2025-07-31T03:00:00:Z","depth":0,"parameterNumber":3,"parameterNumberName":"V-component_of_WINDS"},"data":[0,0,0,0,0,0,0,0,0,0,0,0,0,0,0,0,0,0,0,0,0,0,0,0,0,0,0,0,0,0,0,0,0,0,0,0,0,0,0,0,0,0,0,0,0,0,0,0,0,0,0,0,0,0,0,0,0,0,-1.372,-1.372,0,-1.3761,-1.3762,-1.3762,-1.3749,-1.3748,-1.3747,-1.3746,-1.3787,-1.3788,-1.379,0,0,0,0,0,0,0,0,0,0,0,0,0,-1.3627,-1.3629,-1.372,-1.372,-1.3721,-1.3761,-1.3762,-1.3762,-1.3749,-1.3748,-1.3747,-1.3746,-1.3786,-1.3788,-1.3791,0,0,0,0,0,0,0,0,0,0,0,0,0,-1.3668,-1.363,-1.372,-1.3719,-1.372,-1.3761,-1.3762,-1.3763,-1.3749,-1.3748,-1.3747,-1.3745,-1.3785,-1.3788,-1.3791,-1.3835,0,0,-1.38,-1.3801,0,0,0,0,0,0,0,0,-1.3666,-1.3671,-1.3719,-1.3719,-1.372,-1.3749,-1.3744,-1.3787,-1.375,-1.3738,-1.3746,-1.3745,-1.3775,-1.3779,-1.3789,-1.3837,-1.3839,-1.38,-1.3802,-1.3803,-1.3804,0,0,0,0,0,0,0,-1.3663,-1.3669,-1.3736,-1.3719,-1.372,-1.3716,-1.372,-1.3752,-1.3763,-1.3739,-1.3738,-1.3743,-1.3775,-1.3786,-1.379,-1.3839,-1.38,-1.3802,-1.3804,-1.3805,-1.3925,-1.3926,0,0,0,0,0,0,-1.366,-1.3667,-1.3735,-1.3737,-1.3689,-1.3719,-1.3724,-1.3741,-1.3763,-1.3765,-1.3744,-1.3742,-1.3782,-1.3787,-1.3791,-1.3844,-1.3803,-1.3805,-1.3807,-1.3923,-1.3925,-1.3927,0,0,0,0,0,0,-1.3658,-1.3666,-1.3733,-1.3702,-1.371,-1.3722,-1.3741,-1.3742,-1.3754,-1.3767,-1.3769,-1.3754,-1.3781,-1.3787,-1.3824,-1.3845,-1.3807,-1.3809,-1.3922,-1.3924,-1.3926,-1.395,0,0,0,0,0,0,-1.3655,-1.3666,-1.3683,-1.3703,-1.3712,-1.3766,-1.3742,-1.3744,-1.3759,-1.3757,-1.3777,-1.3779,-1.3781,-1.382,-1.3827,-1.3849,-1.3811,-1.392,-1.3923,-1.3925,-1.3948,-1.3953,-1.3958,0,0,0,0,0,-1.3652,-1.3688,-1.3684,-1.3692,-1.3734,-1.3767,-1.3773,-1.3775,-1.3761,-1.3778,-1.3786,-1.3778,-1.3842,-1.3824,-1.3832,-1.3854,-1.3918,-1.3922,-1.3925,-1.3945,-1.3952,-1.3958,0,0,0,0,0,0,-1.3669,-1.369,-1.3686,-1.3729,-1.3747,-1.3765,-1.3787,-1.3782,-1.3803,-1.38,-1.3802,-1.3806,-1.3844,-1.3853,-1.3833,-1.3898,-1.3878,-1.3883,-1.3891,-1.3897,-1.3902,-1.3899,-1.3814,0,0,0,0,0,-1.3678,-1.3704,-1.3721,-1.3757,-1.3766,-1.3775,-1.379,-1.379,-1.3808,-1.3815,-1.3826,-1.3843,-1.3867,-1.3883,-1.3906,-1.3949,-1.3953,-1.3969,-1.3974,-1.3978,-1.3982,-1.4005,-1.4012,-1.3938,-1.3938,-1.3938,0,0,-1.3696,-1.3711,-1.3727,-1.3761,-1.3774,-1.3801,-1.3781,-1.381,-1.3829,-1.3819,-1.3855,-1.3864,-1.3883,-1.3923,-1.3941,-1.3932,-1.4003,-1.3982,-1.3985,-1.3987,-1.4009,-1.4016,-1.4023,-1.394,-1.3939,-1.3939,0,0,-1.3743,-1.3757,-1.3789,-1.3803,-1.3824,-1.383,-1.3838,-1.3857,-1.3863,-1.3899,-1.3892,-1.3914,-1.3956,-1.397,-1.3982,-1.4035,-1.4027,-1.4042,-1.4068,-1.4091,-1.4097,-1.4102,-1.412,-1.4127,-1.4046,-1.4046,-1.4046,0,-1.3763,-1.3803,-1.3806,-1.3835,-1.385,-1.3843,-1.3875,-1.3888,-1.3915,-1.3925,-1.3914,-1.3966,-1.3978,-1.4022,-1.4035,-1.4045,-1.4053,-1.4039,-1.4096,-1.4101,-1.4106,-1.4123,-1.413,-1.4048,-1.4048,-1.4047,-1.4047,0,-1.3826,-1.3854,-1.3877,-1.3904,-1.3922,-1.3952,-1.3959,-1.3976,-1.3975,-1.3982,-1.4018,-1.4033,-1.4059,-1.4069,-1.4068,-1.4112,-1.4106,-1.4095,-1.4075,-1.4114,-1.4131,-1.4137,-1.405,-1.4049,-1.4049,-1.4049,0,0,-1.3884,-1.3913,-1.3921,-1.3934,-1.3957,-1.3978,-1.4008,-1.4033,-1.4048,-1.4067,-1.4092,-1.4127,-1.4118,-1.4132,-1.4132,-1.4152,-1.4192,-1.4139,-1.414,-1.4148,-1.4242,-1.4249,-1.4257,-1.4188,-1.419,-1.4191,-1.424,0,-1.3933,-1.3986,-1.3989,-1.4037,-1.4063,-1.4056,-1.4082,-1.4099,-1.4106,-1.4128,-1.4136,-1.4161,-1.4147,-1.4155,-1.4175,-1.4183,-1.4211,-1.418,-1.421,-1.4211,-1.4205,-1.4265,-1.4273,-1.4319,-1.4246,-1.4247,-1.4248,0,-1.3996,-1.4018,-1.4068,-1.4088,-1.4098,-1.4122,-1.4146,-1.4167,-1.4186,-1.4189,-1.4206,-1.4203,-1.4233,-1.4213,-1.4254,-1.4232,-1.4245,-1.4251,-1.4253,-1.4255,-1.4232,-1.4269,-1.4334,-1.434,-1.4258,-1.4258,-1.4257,0,-1.4033,-1.4074,-1.411,-1.4121,-1.4144,-1.4161,-1.4171,-1.4189,-1.4204,-1.4225,-1.4235,-1.4258,-1.4271,-1.4289,-1.4293,-1.4278,-1.4334,-1.4314,-1.4338,-1.4337,-1.4349,-1.4348,-1.4417,-1.4358,-1.4358,-1.4358,-1.4358,0,-1.4086,-1.4117,-1.4127,-1.4149,-1.4183,-1.4187,-1.4221,-1.423,-1.4246,-1.4269,-1.4265,-1.4286,-1.4291,-1.4313,-1.4316,-1.435,-1.4356,-1.4359,-1.4359,-1.4359,-1.4359,-1.4367,-1.4364,-1.436,-1.436,-1.4359,-1.4359,0,-1.4132,-1.414,-1.4179,-1.4198,-1.4204,-1.4228,-1.4245,-1.4266,-1.4272,-1.4302,-1.4309,-1.4319,-1.4346,-1.4352,-1.4383,-1.4385,-1.4424,-1.4422,-1.4418,-1.4418,-1.4441,-1.4439,-1.4517,-1.4527,-1.4462,-1.4463,-1.4464,0,-1.4165,-1.4189,-1.4212,-1.4227,-1.4239,-1.4264,-1.4279,-1.4284,-1.43,-1.4323,-1.4341,-1.4367,-1.4388,-1.443,-1.444,-1.4464,-1.4461,-1.4487,-1.4465,-1.4464,-1.4461,-1.446,-1.4462,-1.4491,-1.4492,-1.4492,-1.4493,0,-1.4223,-1.4226,-1.4249,-1.4274,-1.4293,-1.4313,-1.4331,-1.4344,-1.4351,-1.437,-1.4397,-1.4413,-1.4445,-1.4471,-1.4495,-1.4505,-1.45,-1.45,-1.4507,-1.4506,-1.4503,-1.4505,-1.4429,-1.4498,-1.4497,-1.4497,-1.4497,-1.4497,-1.4264,-1.4285,-1.4304,-1.433,-1.4344,-1.4362,-1.4382,-1.4392,-1.4415,-1.4442,-1.4443,-1.4472,-1.449,-1.4522,-1.4533,-1.4556,-1.4548,-1.4558,-1.456,-1.4562,-1.4564,-1.45,-1.456,-1.456,-1.456,-1.456,-1.456,0,-1.4321,-1.4333,-1.4357,-1.4384,-1.4404,-1.4399,-1.4419,-1.4436,-1.4462,-1.448,-1.4501,-1.4532,-1.4556,-1.4569,-1.4593,-1.4609,-1.4607,-1.4615,-1.4614,-1.4616,-1.457,-1.4562,-1.4616,-1.4616,-1.4616,-1.4616,-1.4616,-1.4616,-1.4353,-1.4388,-1.4394,-1.4436,-1.4447,-1.4477,-1.4489,-1.4505,-1.4519,-1.4554,-1.4575,-1.4583,-1.4598,-1.4624,-1.4646,-1.4649,-1.4658,-1.4667,-1.4668,-1.4625,-1.4619,-1.4614,-1.4606,-1.4669,-1.4669,-1.4712,-1.4713,-1.4713]}]]